GW3653 Weather Reports


Display with metric or nautical units.
time (UTC)temp
F
wind
direction
speed
MPH
gust
MPH
rain 1hr
in
rain 24hr
in
rain mn
in
humidity
%
barometer
mb
20260906084518 56 113 2.0 10.0 0.00 0.49 0.11 77 1029.6
20260906083519 56 113 1.0 7.0 0.00 0.49 0.11 77 1029.4
20260906082538 57 113 2.0 13.0 0.00 0.49 0.11 75 1029.3
20260906081519 57 113 3.0 15.0 0.00 0.49 0.11 73 1029.2
20260906080518 57 113 1.0 10.0 0.00 0.49 0.11 73 1029.0
20260906075518 58 113 2.0 12.0 0.00 0.49 0.11 73 1029.0
20260906074518 58 135 2.0 7.0 0.00 0.49 0.11 73 1028.9
20260906073519 58 113 3.0 10.0 0.00 0.49 0.11 73 1029.0
20260906072518 57 113 4.0 12.0 0.00 0.49 0.11 74 1028.9
20260906071518 58 90 3.0 14.0 0.00 0.49 0.11 74 1028.9
20260906070518 58 90 2.0 12.0 0.00 0.49 0.11 71 1028.6
20260906065518 58 113 2.0 8.0 0.00 0.49 0.11 66 1028.4
20260906064518 59 90 1.0 11.0 0.00 0.49 0.11 69 1028.3
20260906063518 59 90 2.0 11.0 0.00 0.49 0.11 72 1028.2
20260906062519 59 135 2.0 11.0 0.00 0.49 0.11 70 1028.2
20260906061538 60 135 1.0 10.0 0.00 0.49 0.11 66 1028.1
20260906060518 60 135 1.0 5.0 0.00 0.49 0.11 66 1027.9
20260906055518 59 113 3.0 11.0 0.00 0.49 0.11 65 1027.8
20260906054518 59 90 4.0 16.0 0.00 0.49 0.11 68 1027.9
20260906053519 59 113 4.0 14.0 0.00 0.49 0.11 66 1027.9
20260906052518 59 135 1.0 8.0 0.00 0.49 0.11 68 1027.8
20260906051519 59 113 1.0 7.0 0.00 0.49 0.11 70 1027.9
20260906050519 60 113 1.0 5.0 0.00 0.49 0.11 69 1027.9
20260906045518 60 113 2.0 9.0 0.00 0.49 0.11 71 1027.9
20260906044518 59 113 2.0 12.0 0.00 0.49 0.11 73 1027.8
20260906043518 59 113 1.0 9.0 0.00 0.49 0.11 73 1027.9
20260906042518 58 113 2.0 10.0 0.00 0.49 0.11 72 1028.1
20260906041518 59 113 1.0 8.0 0.00 0.49 0.11 72 1028.1
20260906040538 59 135 2.0 10.0 0.00 0.49 0.11 72 1028.0
20260906035539 59 135 4.0 14.0 0.00 0.49 0.11 71 1028.0
20260906034518 60 135 3.0 12.0 0.00 0.49 0.11 71 1028.2
20260906033518 59 113 3.0 11.0 0.00 0.49 0.11 70 1028.0
20260906032518 60 113 3.0 14.0 0.00 0.49 0.11 70 1028.0
20260906031518 60 113 3.0 12.0 0.00 0.49 0.11 70 1028.0
20260906030518 60 113 1.0 6.0 0.00 0.49 0.11 71 1027.9
20260906025558 60 135 4.0 14.0 0.00 0.49 0.11 67 1027.9
20260906024517 59 113 6.0 17.0 0.00 0.49 0.11 69 1027.9
20260906023558 60 113 6.0 20.0 0.00 0.49 0.11 67 1027.8
20260906022518 60 113 1.0 6.0 0.00 0.49 0.11 71 1027.6
20260906021518 59 113 5.0 14.0 0.00 0.49 0.11 67 1027.6
20260906020518 59 135 2.0 8.0 0.00 0.49 0.11 69 1027.6
20260906015517 58 113 2.0 11.0 0.00 0.49 0.11 68 1027.5
20260906014517 58 135 1.0 7.0 0.00 0.49 0.11 71 1027.5
20260906013518 57 135 1.0 5.0 0.00 0.49 0.11 72 1027.4
20260906012518 57 135 2.0 9.0 0.00 0.49 0.11 73 1027.4
20260906011557 57 135 3.0 13.0 0.00 0.49 0.11 74 1027.1
20260906010538 57 135 1.0 11.0 0.00 0.49 0.11 74 1026.9
20260906005537 57 180 3.0 14.0 0.00 0.49 0.11 71 1026.8
20260906004518 57 135 1.0 6.0 0.00 0.49 0.11 73 1026.7
20260906003517 56 113 1.0 7.0 0.00 0.49 0.11 73 1026.5
20260906002518 56 135 2.0 10.0 0.00 0.49 0.11 73 1026.3
20260906001517 56 158 1.0 11.0 0.00 0.49 0.11 75 1026.2
20260906000517 56 135 2.0 9.0 0.00 0.49 0.11 76 1025.9
20260905235517 56 135 1.0 7.0 0.00 0.49 0.11 75 1025.9
20260905234557 55 135 2.0 10.0 0.00 0.49 0.11 75 1025.6
20260905233517 55 0.0 4.0 0.00 0.49 0.11 76 1025.5
20260905232517 55 180 1.0 6.0 0.00 0.49 0.11 76 1025.3
20260905231538 55 135 1.0 4.0 0.00 0.49 0.11 77 1025.1
20260905230557 55 135 1.0 11.0 0.00 0.49 0.11 76 1024.9
20260905225518 55 135 1.0 7.0 0.00 0.49 0.11 77 1024.7
20260905224518 55 135 2.0 13.0 0.00 0.49 0.11 77 1024.3
20260905223518 55 135 2.0 10.0 0.00 0.49 0.11 79 1024.2
20260905222517 55 135 3.0 13.0 0.00 0.49 0.11 79 1024.0
20260905221517 55 135 1.0 7.0 0.00 0.49 0.11 80 1023.8
20260905220517 55 135 3.0 12.0 0.00 0.49 0.11 80 1023.6
20260905215517 55 135 3.0 11.0 0.00 0.49 0.11 81 1023.4
20260905214517 54 135 1.0 6.0 0.00 0.49 0.11 84 1023.3
20260905213517 54 113 2.0 13.0 0.00 0.49 0.11 84 1023.1
20260905212517 54 135 3.0 11.0 0.00 0.49 0.11 85 1022.8
20260905211517 54 135 1.0 10.0 0.00 0.49 0.11 86 1022.7
20260905210539 54 203 3.0 13.0 0.00 0.49 0.11 87 1022.5
20260905205517 53 135 2.0 10.0 0.00 0.49 0.11 91 1022.3
20260905204517 52 135 2.0 9.0 0.00 0.49 0.11 93 1022.1
20260905203519 52 158 2.0 12.0 0.00 0.49 0.11 94 1021.9
20260905202519 52 135 1.0 10.0 0.00 0.49 0.11 94 1021.7
20260905201539 52 135 3.0 13.0 0.00 0.49 0.11 94 1021.2
20260905200519 52 225 2.0 10.0 0.00 0.49 0.11 94 1021.0
20260905195519 52 203 2.0 13.0 0.00 0.49 0.11 94 1021.0
20260905194519 53 225 3.0 9.0 0.00 0.49 0.11 94 1020.7
20260905193519 53 135 2.0 10.0 0.00 0.49 0.11 94 1020.6
20260905192519 53 158 1.0 3.0 0.00 0.49 0.11 94 1020.5
20260905191519 53 0.0 2.0 0.00 0.49 0.11 94 1020.2
20260905190519 53 225 1.0 11.0 0.00 0.49 0.11 94 1020.0
20260905185519 54 158 1.0 7.0 0.00 0.49 0.11 94 1019.8
20260905184519 54 203 1.0 6.0 0.01 0.49 0.11 94 1019.5
20260905183519 54 158 1.0 7.0 0.05 0.49 0.11 94 1019.4
20260905182519 54 203 1.0 10.0 0.07 0.49 0.11 94 1019.4
20260905181518 54 203 1.0 7.0 0.09 0.49 0.11 94 1019.2
20260905180520 54 0.0 5.0 0.09 0.49 0.11 94 1019.2
20260905175518 55 203 1.0 4.0 0.10 0.49 0.11 94 1019.2
20260905174519 55 180 1.0 6.0 0.09 0.48 0.10 94 1019.1
20260905173620 55 203 1.0 5.0 0.06 0.44 0.06 94 1019.0
20260905172519 55 0.0 2.0 0.03 0.42 0.04 94 1018.9
20260905171518 55 0.0 2.0 0.01 0.39 0.02 94 1018.9
20260905170519 54 0.0 1.0 0.02 0.39 0.02 94 1018.8
20260905165519 54 0.0 0.0 0.01 0.39 0.01 94 1018.6
20260905164518 54 0.0 0.0 0.01 0.39 0.01 94 1018.4
20260905163519 54 0.0 0.0 0.02 0.39 0.01 94 1018.3
20260905162518 54 0.0 0.0 0.05 0.39 0.01 93 1018.3
20260905161518 54 0.0 2.0 0.17 0.39 0.01 93 1018.2
20260905160540 55 135 1.0 10.0 0.28 0.38 0.00 93 1018.1
20260905155519 55 0.0 0.0 0.30 0.38 0.38 93 1017.9
20260905153519 56 0.0 1.0 0.30 0.37 0.37 93 1017.8
20260905152519 56 0.0 0.0 0.27 0.34 0.34 93 1017.7
20260905151519 56 0.0 2.0 0.16 0.22 0.22 93 1017.6
20260905150519 56 0.0 4.0 0.06 0.10 0.10 92 1017.5
20260905145518 56 0.0 0.0 0.04 0.08 0.08 92 1017.3
20260905144518 56 0.0 0.0 0.04 0.07 0.07 92 1017.3
20260905143519 56 0.0 0.0 0.04 0.07 0.07 91 1017.3
20260905142519 56 0.0 0.0 0.06 0.07 0.07 91 1017.3
20260905141518 56 0.0 0.0 0.06 0.06 0.06 91 1017.1
20260905140519 56 0.0 0.0 0.05 0.05 0.05 91 1017.2
20260905135519 56 0.0 0.0 0.04 0.04 0.04 91 1017.1
20260905134519 56 0.0 0.0 0.03 0.03 0.03 91 1017.0
20260905133519 55 0.0 0.0 0.03 0.03 0.03 91 1016.8
20260905132518 55 0.0 0.0 0.02 0.02 0.02 90 1016.8
20260905131538 55 0.0 0.0 0.00 0.00 0.00 90 1016.7
20260905130519 55 0.0 0.0 0.00 0.00 0.00 90 1016.5
20260905125519 56 0.0 0.0 0.00 0.00 0.00 90 1016.4
20260905124518 55 0.0 0.0 0.00 0.00 0.00 90 1016.2
20260905123518 55 0.0 0.0 0.00 0.00 0.00 90 1016.1
20260905122519 55 0.0 0.0 0.00 0.00 0.00 89 1015.8
20260905121518 55 0.0 0.0 0.00 0.00 0.00 89 1015.8
20260905120539 56 0.0 0.0 0.00 0.00 0.00 89 1015.7
20260905115519 56 0.0 0.0 0.00 0.00 0.00 88 1015.6
20260905114518 56 0.0 0.0 0.00 0.00 0.00 88 1015.5
20260905113519 57 0.0 0.0 0.00 0.00 0.00 88 1015.4
20260905112518 57 0.0 0.0 0.00 0.00 0.00 88 1015.5
20260905111538 58 0.0 0.0 0.00 0.00 0.00 88 1015.4
20260905110519 58 0.0 0.0 0.00 0.00 0.00 88 1015.4
20260905105518 58 0.0 0.0 0.00 0.00 0.00 87 1015.2
20260905104518 58 0.0 0.0 0.00 0.00 0.00 86 1015.1
20260905103518 59 0.0 0.0 0.00 0.00 0.00 86 1014.9
20260905102518 59 0.0 0.0 0.00 0.00 0.00 85 1014.8
20260905101518 59 0.0 1.0 0.00 0.00 0.00 84 1014.6
20260905100518 60 0.0 2.0 0.00 0.00 0.00 83 1014.6
20260905095518 62 248 1.0 7.0 0.00 0.00 0.00 78 1014.6
20260905094518 63 0.0 0.0 0.00 0.00 0.00 74 1014.4
20260905093518 63 0.0 1.0 0.00 0.00 0.00 73 1014.3
20260905092518 64 0.0 0.0 0.00 0.00 0.00 73 1014.1
20260905091518 64 0.0 2.0 0.00 0.00 0.00 71 1013.9
20260905090518 65 0.0 0.0 0.00 0.00 0.00 70 1013.8
20260905085518 66 0.0 8.0 0.00 0.00 0.00 68 1013.5